User: anonymous   Login
Location: Brno
(49.2000°N, 16.6330°E)
Time: 07:31:08
(UTC+01:00)
Language:

BREEZE M DEB (TANK) - Orbit

View from above orbital plane
View from above orbital plane
View from above satellite
View from above satellite

Ground track
Ground track

The orbit data is extracted from the following two-line orbital elements,

1 28359U 04022B   15062.31464050  .00008077  00000-0  94408-3 0  9992
2 28359 049.5183 159.0876 4708099 239.2321 078.3704 06.13717954233587
Epoch (UTC): 03 March 2015 07:33:04
Eccentricity: 0.4708099
inclination: 49.5183°
perigee height: 290 km
apogee height: 12156 km
right ascension of ascending node: 159.0876°
argument of perigee: 239.2321°
revolutions per day: 6.13717954
mean anomaly at epoch: 78.3704°
orbit number at epoch: 23358

The dashed part of the orbit path shows where the satellite is in the earth's shadow,  

DLR